Home > Weather > Madrid > Past weeks

Flag for Spain Past Weather in Madrid, Spain — Yesterday and Last 2 Weeks

Now
99 °F

Passing clouds.


Feels Like: 94 °F
Forecast: 72 / 100 °F
Wind: 2 mph from North

Location: Madrid / Cuatro Vientos

Current Time: Jul 27, 2016 at 7:26:06 PM

Latest Report: Jul 27, 2016 at 7:00 PM


Visibility: N/A

Pressure: 30.01 "Hg (27.91 "Hg at 658m altitude)

Humidity: 15%

Dew Point: 43 °F

Location of MadridLocation

Past Weather in Madrid — Graph

°F

Madrid Temperature Yesterday

Maximum temperature yesterday: 100 °F (at 7:30 PM)
Minimum temperature yesterday: 73 °F (at 7:00 AM)
Average temperature yesterday: 90 °F

High & Low Weather Summary for the Past Weeks

 TemperatureHumidityPressure
High100 °F (Jul 18, 4:30 PM)60% (Jul 23, 7:00 AM)30.27 "Hg (Jul 23, 7:00 AM)
Low55 °F (Jul 14, 7:30 AM)6% (Jul 15, 7:30 PM)29.95 "Hg (Jul 21, 6:30 PM)
Average85 °F24%30.10 "Hg
* Reported Jul 12 6:00 PM — Jul 27 6:00 PM, Madrid, Weather by CustomWeather, © 2016

Note: Actual official high and low records may vary slightly from our data, if they occured in-between our weather recording intervals... More about our weather records

Advertising

Madrid Weather History for the Previous 24 Hours

Scroll right to see more
 ConditionsComfort  
Time TempWeatherWind HumidityBarometerVisibility
6:00 PM
Wed, Jul 27
99 °FPassing clouds.3 mph15%30.04 "HgN/A
5:30 PM97 °FPassing clouds.6 mph14%30.04 "HgN/A
5:00 PM97 °FPassing clouds.8 mph16%30.04 "HgN/A
4:30 PM100 °FPassing clouds.7 mph15%30.04 "HgN/A
4:00 PM100 °FPassing clouds.1 mph14%30.04 "HgN/A
3:30 PM99 °FPassing clouds.6 mph16%30.07 "HgN/A
3:00 PM99 °FSunny.5 mph16%30.07 "Hg10 mi
2:30 PM97 °FSunny.2 mph19%30.07 "Hg10 mi
2:00 PM95 °FSunny.5 mph20%30.09 "Hg10 mi
1:30 PM95 °FSunny.5 mph22%30.09 "Hg10 mi
1:00 PM91 °FSunny.3 mph24%30.09 "Hg10 mi
12:30 PM91 °FSunny.2 mph26%30.09 "Hg10 mi
12:00 PM90 °FSunny.3 mph27%30.09 "Hg10 mi
11:30 AM88 °FSunny.3 mph29%30.09 "Hg10 mi
11:00 AM84 °FSunny.2 mph31%30.09 "Hg10 mi
10:30 AM84 °FSunny.2 mph33%30.12 "Hg10 mi
10:00 AM82 °FPassing clouds.5 mph35%30.12 "HgN/A
9:30 AM82 °FPassing clouds.5 mph35%30.09 "HgN/A
9:00 AM81 °FSunny.1 mph37%30.09 "Hg10 mi
8:30 AM77 °FSunny.2 mph42%30.09 "Hg10 mi
8:00 AM77 °FClear.2 mph42%30.09 "Hg10 mi
7:30 AM75 °FPassing clouds.3 mph44%30.09 "HgN/A
7:00 AM75 °FClear.2 mph44%30.09 "Hg10 mi
11:30 PM
Tue, Jul 26
84 °FPassing clouds.7 mph25%30.07 "HgN/A
11:00 PM86 °FPassing clouds.6 mph22%30.07 "HgN/A
10:30 PM84 °FSunny.3 mph23%30.04 "Hg10 mi
10:00 PM86 °FSunny.3 mph22%30.04 "Hg10 mi
9:30 PM88 °FSunny.3 mph19%30.04 "Hg10 mi
9:00 PM93 °FPassing clouds.3 mph16%30.04 "HgN/A
8:30 PM97 °FSunny.1 mph14%30.04 "Hg10 mi
8:00 PM97 °FPassing clouds.5 mph13%30.04 "HgN/A
7:30 PM100 °FSunny.3 mph13%30.04 "Hg10 mi
7:00 PM99 °FSunny.3 mph13%30.04 "Hg10 mi
Weather by CustomWeather, © 2016

See weather overviewHow to use our weather pages